When you browse on this site, cookies collect data to enhance your experience and personalize the content and advertising you see.
Visit our Privacy Policy to learn more. By continuing to use the site, you agree to this use of cookies and data.
  • In Latvia
  • List of Countries
  • For 7 days
  • Water Temperature
  • Weather Map
  • Weather Widgets
  • user-avatar
    Login

    Hourly Weather Newark

    Today, 15 September, Sunday

    Time Temperature Precipitation Wind Pressure Humidity
    00:00 +24°C° 0 mm 2 mps 764 mmHg 79%
    01:00 +24°C° 0 mm 2 mps 764 mmHg 81%
    02:00 +23°C° 0.1 mm 2 mps 764 mmHg 83%
    03:00 +23°C° 0.1 mm 2 mps 764 mmHg 85%
    04:00 +23°C° 0.1 mm 1 mps 763 mmHg 87%
    05:00 +23°C° 0.1 mm 1 mps 764 mmHg 84%
    06:00 +23°C° 0.1 mm 1 mps 764 mmHg 81%
    07:00 +23°C° 0.1 mm 2 mps 764 mmHg 78%
    08:00 +25°C° 0 mm 2 mps 764 mmHg 69%
    09:00 +26°C° 0 mm 2 mps 764 mmHg 60%
    10:00 +27°C° 0 mm 2 mps 764 mmHg 51%
    11:00 +28°C° 0 mm 2 mps 763 mmHg 45%
    12:00 +29°C° 0 mm 2 mps 763 mmHg 40%
    13:00 +30°C° 0 mm 2 mps 763 mmHg 34%
    14:00 +30°C° 0 mm 2 mps 762 mmHg 33%
    15:00 +30°C° 0 mm 2 mps 762 mmHg 33%
    16:00 +30°C° 0 mm 2 mps 761 mmHg 33%
    17:00 +29°C° 0 mm 1 mps 761 mmHg 38%
    18:00 +28°C° 0 mm 1 mps 762 mmHg 43%
    19:00 +26°C° 0 mm 1 mps 762 mmHg 48%
    20:00 +26°C° 0 mm 1 mps 762 mmHg 49%
    21:00 +26°C° 0 mm 1 mps 761 mmHg 50%
    22:00 +25°C° 0 mm 1 mps 761 mmHg 51%
    23:00 +25°C° 0 mm 1 mps 761 mmHg 51%

    Tomorrow, 16 September, Monday

    Time Temperature Precipitation Wind Pressure Humidity
    00:00 +25°C° 0 mm 1 mps 761 mmHg 52%
    01:00 +24°C° 0 mm 1 mps 761 mmHg 53%
    02:00 +24°C° 0 mm 1 mps 761 mmHg 54%
    03:00 +24°C° 0 mm 1 mps 761 mmHg 56%
    04:00 +23°C° 0 mm 1 mps 761 mmHg 57%
    05:00 +24°C° 0 mm 1 mps 761 mmHg 57%
    06:00 +24°C° 0 mm 1 mps 761 mmHg 57%
    07:00 +22°C° 0 mm 0 mps 761 mmHg 58%
    08:00 +25°C° 0 mm 1 mps 761 mmHg 53%
    09:00 +27°C° 0 mm 1 mps 761 mmHg 49%
    10:00 +28°C° 0 mm 1 mps 761 mmHg 45%
    11:00 +29°C° 0 mm 1 mps 760 mmHg 45%
    12:00 +29°C° 0 mm 1 mps 760 mmHg 44%
    13:00 +29°C° 0 mm 2 mps 759 mmHg 44%
    14:00 +29°C° 0 mm 2 mps 759 mmHg 46%
    15:00 +29°C° 0 mm 2 mps 759 mmHg 49%
    16:00 +28°C° 0 mm 2 mps 758 mmHg 52%
    17:00 +27°C° 0.1 mm 2 mps 759 mmHg 56%
    18:00 +26°C° 0.1 mm 3 mps 759 mmHg 61%
    19:00 +25°C° 0.1 mm 3 mps 760 mmHg 65%
    20:00 +25°C° 0 mm 3 mps 760 mmHg 67%
    21:00 +24°C° 0 mm 3 mps 760 mmHg 70%
    22:00 +22°C° 0 mm 3 mps 760 mmHg 72%
    23:00 +22°C° 0 mm 3 mps 761 mmHg 71%

    Day after tomorrow, 17 September, Tuesday

    Time Temperature Precipitation Wind Pressure Humidity
    00:00 +21°C° 0 mm 4 mps 761 mmHg 70%
    01:00 +21°C° 0 mm 4 mps 761 mmHg 69%
    02:00 +20°C° 0 mm 4 mps 761 mmHg 66%
    03:00 +19°C° 0 mm 4 mps 761 mmHg 64%
    04:00 +18°C° 0 mm 4 mps 762 mmHg 61%
    05:00 +17°C° 0 mm 4 mps 762 mmHg 60%
    06:00 +17°C° 0 mm 4 mps 763 mmHg 59%
    07:00 +17°C° 0 mm 4 mps 763 mmHg 58%
    08:00 +18°C° 0 mm 4 mps 764 mmHg 52%
    09:00 +20°C° 0 mm 4 mps 764 mmHg 47%
    10:00 +21°C° 0 mm 4 mps 764 mmHg 41%
    11:00 +22°C° 0 mm 4 mps 763 mmHg 38%
    12:00 +24°C° 0 mm 3 mps 763 mmHg 35%
    13:00 +25°C° 0 mm 3 mps 763 mmHg 33%
    14:00 +25°C° 0 mm 3 mps 763 mmHg 34%
    15:00 +25°C° 0 mm 3 mps 763 mmHg 35%
    16:00 +25°C° 0 mm 3 mps 762 mmHg 36%
    17:00 +24°C° 0 mm 3 mps 763 mmHg 43%
    18:00 +21°C° 0 mm 2 mps 763 mmHg 49%
    19:00 +20°C° 0 mm 2 mps 763 mmHg 55%
    20:00 +20°C° 0 mm 2 mps 764 mmHg 57%
    21:00 +19°C° 0 mm 2 mps 764 mmHg 59%
    22:00 +20°C° 0 mm 1 mps 764 mmHg 61%
    23:00 +20°C° 0 mm 1 mps 764 mmHg 63%

    18 September, Wednesday

    Time Temperature Precipitation Wind Pressure Humidity
    00:00 +20°C° 0 mm 1 mps 764 mmHg 64%
    01:00 +19°C° 0 mm 1 mps 764 mmHg 65%
    02:00 +19°C° 0 mm 1 mps 765 mmHg 65%
    03:00 +19°C° 0 mm 1 mps 765 mmHg 65%
    04:00 +17°C° 0 mm 2 mps 765 mmHg 66%
    05:00 +17°C° 0 mm 2 mps 765 mmHg 66%
    06:00 +17°C° 0 mm 2 mps 765 mmHg 66%
    07:00 +17°C° 0 mm 2 mps 766 mmHg 66%
    08:00 +19°C° 0 mm 2 mps 766 mmHg 62%
    09:00 +20°C° 0 mm 2 mps 766 mmHg 58%
    10:00 +21°C° 0 mm 2 mps 766 mmHg 54%
    11:00 +23°C° 0 mm 2 mps 766 mmHg 51%
    12:00 +23°C° 0 mm 2 mps 766 mmHg 48%
    13:00 +24°C° 0 mm 2 mps 766 mmHg 46%
    14:00 +24°C° 0 mm 2 mps 765 mmHg 45%
    15:00 +24°C° 0 mm 2 mps 765 mmHg 44%
    16:00 +24°C° 0 mm 2 mps 765 mmHg 43%
    17:00 +23°C° 0 mm 2 mps 765 mmHg 49%
    18:00 +20°C° 0 mm 2 mps 766 mmHg 54%
    19:00 +19°C° 0 mm 2 mps 766 mmHg 59%
    20:00 +19°C° 0 mm 2 mps 766 mmHg 61%
    21:00 +19°C° 0 mm 2 mps 767 mmHg 62%
    22:00 +18°C° 0 mm 2 mps 767 mmHg 63%
    23:00 +18°C° 0 mm 2 mps 767 mmHg 64%

    19 September, Thursday

    Time Temperature Precipitation Wind Pressure Humidity
    00:00 +19°C° 0 mm 1 mps 767 mmHg 66%
    01:00 +19°C° 0 mm 1 mps 767 mmHg 67%
    02:00 +18°C° 0 mm 1 mps 767 mmHg 67%
    03:00 +18°C° 0 mm 1 mps 767 mmHg 68%
    04:00 +17°C° 0 mm 2 mps 767 mmHg 68%
    05:00 +17°C° 0 mm 2 mps 767 mmHg 67%
    06:00 +17°C° 0 mm 2 mps 767 mmHg 65%
    07:00 +17°C° 0 mm 2 mps 767 mmHg 64%
    08:00 +19°C° 0 mm 2 mps 768 mmHg 58%
    09:00 +21°C° 0 mm 1 mps 768 mmHg 52%
    10:00 +23°C° 0 mm 1 mps 768 mmHg 46%
    11:00 +24°C° 0 mm 1 mps 768 mmHg 43%
    12:00 +25°C° 0 mm 1 mps 767 mmHg 40%
    13:00 +26°C° 0 mm 1 mps 767 mmHg 36%
    14:00 +25°C° 0 mm 2 mps 767 mmHg 37%
    15:00 +25°C° 0 mm 2 mps 766 mmHg 39%
    16:00 +25°C° 0 mm 3 mps 766 mmHg 40%
    17:00 +22°C° 0 mm 3 mps 766 mmHg 45%
    18:00 +21°C° 0 mm 3 mps 766 mmHg 50%
    19:00 +20°C° 0 mm 3 mps 767 mmHg 55%
    20:00 +19°C° 0 mm 3 mps 767 mmHg 56%
    21:00 +19°C° 0 mm 3 mps 767 mmHg 57%
    22:00 +18°C° 0 mm 2 mps 767 mmHg 57%
    23:00 +18°C° 0 mm 2 mps 767 mmHg 58%

    20 September, Friday

    Time Temperature Precipitation Wind Pressure Humidity
    00:00 +18°C° 0 mm 2 mps 767 mmHg 58%
    01:00 +17°C° 0 mm 2 mps 767 mmHg 59%
    02:00 +17°C° 0 mm 2 mps 767 mmHg 62%
    03:00 +17°C° 0 mm 2 mps 766 mmHg 65%
    04:00 +17°C° 0 mm 2 mps 766 mmHg 68%
    05:00 +17°C° 0 mm 2 mps 766 mmHg 68%
    06:00 +17°C° 0 mm 2 mps 766 mmHg 68%
    07:00 +17°C° 0 mm 2 mps 766 mmHg 68%
    08:00 +19°C° 0 mm 2 mps 766 mmHg 60%
    09:00 +21°C° 0 mm 2 mps 766 mmHg 52%
    10:00 +24°C° 0 mm 2 mps 766 mmHg 44%
    11:00 +26°C° 0 mm 2 mps 766 mmHg 41%
    12:00 +27°C° 0 mm 2 mps 765 mmHg 38%
    13:00 +28°C° 0 mm 2 mps 765 mmHg 34%
    14:00 +28°C° 0 mm 3 mps 764 mmHg 36%
    15:00 +28°C° 0 mm 3 mps 764 mmHg 38%
    16:00 +28°C° 0 mm 3 mps 764 mmHg 39%
    17:00 +27°C° 0 mm 3 mps 764 mmHg 45%
    18:00 +26°C° 0 mm 3 mps 764 mmHg 51%
    19:00 +25°C° 0 mm 3 mps 764 mmHg 57%
    20:00 +24°C° 0 mm 3 mps 764 mmHg 60%
    21:00 +24°C° 0 mm 3 mps 764 mmHg 63%
    22:00 +22°C° 0 mm 3 mps 764 mmHg 65%
    23:00 +22°C° 0 mm 3 mps 764 mmHg 65%
    Show more